TimeMDT,TemperatureF,Dew PointF,Humidity,Sea Level PressureIn,VisibilityMPH,Wind Direction,Wind SpeedMPH,Gust SpeedMPH,PrecipitationIn,Events,Conditions,WindDirDegrees,DateUTC
12:15 AM,42.8,1.4,18,30.15,10.0,ENE,3.5,-,N/A,,Clear,60,2013-03-24 06:15:00
12:35 AM,39.2,1.4,21,30.15,10.0,SE,5.8,-,N/A,,Clear,140,2013-03-24 06:35:00
12:55 AM,39.2,3.2,22,30.15,10.0,SSE,4.6,-,N/A,,Clear,150,2013-03-24 06:55:00
1:15 AM,39.2,3.2,22,30.15,10.0,East,5.8,-,N/A,,Clear,100,2013-03-24 07:15:00
1:35 AM,39.2,3.2,22,30.16,10.0,East,3.5,-,N/A,,Clear,100,2013-03-24 07:35:00
1:55 AM,41.0,5.0,23,30.16,10.0,NE,5.8,-,N/A,,Clear,50,2013-03-24 07:55:00
2:15 AM,41.0,5.0,23,30.16,10.0,Calm,Calm,-,N/A,,Clear,0,2013-03-24 08:15:00
2:35 AM,39.2,3.2,22,30.17,10.0,Calm,Calm,-,N/A,,Clear,0,2013-03-24 08:35:00
2:55 AM,37.4,3.2,24,30.17,10.0,Calm,Calm,-,N/A,,Clear,0,2013-03-24 08:55:00
3:15 AM,37.4,3.2,24,30.17,10.0,South,4.6,-,N/A,,Clear,180,2013-03-24 09:15:00
3:35 AM,35.6,3.2,26,30.17,10.0,South,4.6,-,N/A,,Mostly Cloudy,170,2013-03-24 09:35:00
3:55 AM,35.6,3.2,26,30.16,10.0,SSE,4.6,-,N/A,,Overcast,160,2013-03-24 09:55:00
4:15 AM,37.4,5.0,26,30.16,10.0,Calm,Calm,-,N/A,,Overcast,0,2013-03-24 10:15:00
4:35 AM,37.4,3.2,24,30.16,10.0,South,4.6,-,N/A,,Overcast,170,2013-03-24 10:35:00
4:55 AM,35.6,3.2,26,30.15,10.0,SE,4.6,-,N/A,,Scattered Clouds,130,2013-03-24 10:55:00
5:15 AM,35.6,3.2,26,30.16,10.0,ESE,8.1,-,N/A,,Clear,120,2013-03-24 11:15:00
5:35 AM,35.6,3.2,26,30.15,10.0,ESE,8.1,-,N/A,,Clear,110,2013-03-24 11:35:00
5:55 AM,35.6,1.4,24,30.16,10.0,East,5.8,-,N/A,,Clear,100,2013-03-24 11:55:00
6:15 AM,35.6,3.2,26,30.16,10.0,Calm,Calm,-,N/A,,Clear,0,2013-03-24 12:15:00
6:35 AM,35.6,3.2,26,30.16,10.0,Calm,Calm,-,N/A,,Clear,0,2013-03-24 12:35:00
6:55 AM,35.6,3.2,26,30.16,10.0,Calm,Calm,-,N/A,,Clear,0,2013-03-24 12:55:00
7:15 AM,35.6,3.2,26,30.17,10.0,South,4.6,-,N/A,,Clear,180,2013-03-24 13:15:00
7:35 AM,33.8,3.2,28,30.17,10.0,Calm,Calm,-,N/A,,Clear,0,2013-03-24 13:35:00
7:55 AM,35.6,1.4,24,30.17,10.0,Calm,Calm,-,N/A,,Clear,0,2013-03-24 13:55:00
8:15 AM,33.8,3.2,28,30.18,10.0,Calm,Calm,-,N/A,,Clear,0,2013-03-24 14:15:00
8:35 AM,35.6,3.2,26,30.19,10.0,Calm,Calm,-,N/A,,Clear,0,2013-03-24 14:35:00
8:55 AM,37.4,5.0,26,30.19,10.0,Calm,Calm,-,N/A,,Clear,0,2013-03-24 14:55:00
9:15 AM,37.4,6.8,28,30.19,10.0,SSW,3.5,-,N/A,,Clear,210,2013-03-24 15:15:00
9:35 AM,39.2,5.0,24,30.20,10.0,SSE,3.5,-,N/A,,Clear,160,2013-03-24 15:35:00
9:55 AM,41.0,5.0,23,30.20,10.0,Calm,Calm,-,N/A,,Clear,0,2013-03-24 15:55:00
10:15 AM,42.8,5.0,21,30.19,10.0,SSE,4.6,-,N/A,,Clear,160,2013-03-24 16:15:00
10:35 AM,42.8,6.8,23,30.19,10.0,South,3.5,-,N/A,,Clear,180,2013-03-24 16:35:00
10:55 AM,44.6,6.8,21,30.19,10.0,Calm,Calm,-,N/A,,Clear,0,2013-03-24 16:55:00
11:15 AM,46.4,6.8,20,30.18,10.0,West,3.5,-,N/A,,Clear,280,2013-03-24 17:15:00
11:35 AM,48.2,6.8,19,30.17,10.0,Calm,Calm,-,N/A,,Clear,0,2013-03-24 17:35:00
11:55 AM,48.2,6.8,19,30.16,10.0,Calm,Calm,-,N/A,,Clear,0,2013-03-24 17:55:00
12:15 PM,48.2,6.8,19,30.15,10.0,Calm,Calm,-,N/A,,Clear,0,2013-03-24 18:15:00
12:35 PM,51.8,6.8,16,30.15,10.0,Calm,Calm,-,N/A,,Clear,0,2013-03-24 18:35:00
12:55 PM,51.8,6.8,16,30.14,10.0,Calm,Calm,-,N/A,,Clear,0,2013-03-24 18:55:00
1:15 PM,53.6,8.6,16,30.13,10.0,Calm,Calm,-,N/A,,Clear,0,2013-03-24 19:15:00
1:35 PM,53.6,8.6,16,30.11,10.0,SSE,3.5,-,N/A,,Clear,150,2013-03-24 19:35:00
1:55 PM,55.4,8.6,15,30.10,10.0,Calm,Calm,-,N/A,,Clear,0,2013-03-24 19:55:00
2:15 PM,57.2,10.4,16,30.09,10.0,Calm,Calm,-,N/A,,Clear,0,2013-03-24 20:15:00
2:35 PM,59.0,10.4,15,30.08,10.0,Calm,Calm,-,N/A,,Clear,0,2013-03-24 20:35:00
2:55 PM,59.0,10.4,15,30.07,10.0,Calm,Calm,-,N/A,,Clear,0,2013-03-24 20:55:00
3:15 PM,62.6,12.2,14,30.06,10.0,Calm,Calm,-,N/A,,Clear,0,2013-03-24 21:15:00
3:35 PM,60.8,10.4,14,30.05,10.0,Calm,Calm,-,N/A,,Clear,0,2013-03-24 21:35:00
3:55 PM,62.6,12.2,14,30.03,10.0,South,5.8,-,N/A,,Clear,190,2013-03-24 21:55:00
4:15 PM,60.8,12.2,15,30.03,10.0,Calm,Calm,-,N/A,,Clear,0,2013-03-24 22:15:00
4:35 PM,62.6,10.4,13,30.02,10.0,NNE,3.5,-,N/A,,Clear,20,2013-03-24 22:35:00
4:55 PM,62.6,12.2,14,30.03,10.0,West,6.9,17.3,N/A,,Clear,270,2013-03-24 22:55:00
5:15 PM,62.6,12.2,14,30.02,10.0,SE,5.8,-,N/A,,Clear,140,2013-03-24 23:15:00
5:35 PM,62.6,12.2,14,30.01,10.0,SW,6.9,-,N/A,,Clear,220,2013-03-24 23:35:00
5:55 PM,62.6,12.2,14,30.01,10.0,WSW,6.9,-,N/A,,Clear,240,2013-03-24 23:55:00
6:15 PM,62.6,12.2,14,30.01,10.0,South,5.8,-,N/A,,Clear,190,2013-03-25 00:15:00
6:35 PM,62.6,10.4,13,30.01,10.0,SSW,4.6,-,N/A,,Clear,200,2013-03-25 00:35:00
6:55 PM,62.6,10.4,13,30.01,10.0,WSW,9.2,-,N/A,,Clear,250,2013-03-25 00:55:00
7:15 PM,62.6,10.4,13,30.01,10.0,SW,4.6,-,N/A,,Clear,220,2013-03-25 01:15:00
7:35 PM,62.6,10.4,13,30.01,10.0,South,3.5,-,N/A,,Clear,190,2013-03-25 01:35:00
7:55 PM,60.8,10.4,14,30.01,10.0,Calm,Calm,-,N/A,,Clear,0,2013-03-25 01:55:00
8:15 PM,59.0,10.4,15,30.00,10.0,East,3.5,-,N/A,,Clear,100,2013-03-25 02:15:00
8:35 PM,57.2,10.4,16,30.01,10.0,NE,5.8,-,N/A,,Clear,40,2013-03-25 02:35:00
8:55 PM,55.4,10.4,17,30.02,10.0,NE,13.8,-,N/A,,Clear,50,2013-03-25 02:55:00
9:15 PM,55.4,10.4,17,30.03,10.0,ENE,13.8,-,N/A,,Clear,60,2013-03-25 03:15:00
9:35 PM,55.4,10.4,17,30.03,10.0,ENE,12.7,20.7,N/A,,Clear,60,2013-03-25 03:35:00
9:55 PM,55.4,10.4,17,30.04,10.0,ENE,15.0,-,N/A,,Clear,60,2013-03-25 03:55:00
10:15 PM,55.4,10.4,17,30.05,10.0,NE,17.3,-,N/A,,Clear,50,2013-03-25 04:15:00
10:35 PM,53.6,10.4,18,30.05,10.0,NE,18.4,24.2,N/A,,Clear,50,2013-03-25 04:35:00
10:55 PM,53.6,10.4,18,30.05,10.0,ENE,16.1,23.0,N/A,,Clear,60,2013-03-25 04:55:00
11:15 PM,53.6,10.4,18,30.06,10.0,NE,20.7,25.3,N/A,,Clear,40,2013-03-25 05:15:00
11:35 PM,53.6,10.4,18,30.08,10.0,NE,8.1,18.4,N/A,,Clear,50,2013-03-25 05:35:00
11:55 PM,51.8,10.4,19,30.08,10.0,NNE,8.1,-,N/A,,Clear,20,2013-03-25 05:55:00